Location: Santa Cristina
(46.5667°N, 11.7167°E)
Time: 18:18:02
(UTC+00:00)

Cosmos 1400 Rocket - Pass Details

Date: 21 April 2021
Orbit: 522 x 566 km, 81.2° (Epoch: 11 May)

Event Time Altitude Azimuth Distance (km) Brightness Sun altitude
Rises 02:56:52 0° 352° (N) 2,765 6.8 -12.9°
Reaches altitude 10° 02:59:05 10° 356° (N) 1,869 5.9 -12.6°
Maximum altitude 03:03:11 61° 77° (ENE) 650 3.5 -12.0°
Drops below altitude 10° 03:07:15 10° 158° (SSE) 1,860 5.4 -11.4°
Sets 03:09:26 0° 162° (SSE) 2,751 6.3 -11.1°
